GFSFLT2_sfc_thetae_000.txt.gz
Theta_e
335 336 337 338 336 334 332 329 325 324 323 321 321 322 321 321 320 317 317 316 316 314 313 311 309 306 295
322 329 331 332 332 330 328 326 324 322 322 321 321 321 321 320 317 315 314 313 312 311 309 307 305 302 294
314 318 324 327 326 325 323 320 312 304 305 306 311 320 318 317 315 313 310 309 307 307 306 303 299 292 292
312 312 312 314 313 310 308 304 300 298 299 303 309 316 316 315 312 310 307 303 296 291 291 295 290 291 291
307 307 306 306 305 303 301 298 295 294 298 298 297 295 295 298 293 294 291 290 290 290 289 288 289 289 289
303 305 303 303 300 299 297 295 291 292 293 293 290 289 288 288 288 288 288 288 288 289 288 287 287 288 288
302 302 301 300 300 297 294 294 291 292 290 290 288 287 287 287 287 286 287 287 287 287 287 287 287 287 288
303 302 303 300 297 294 292 293 291 291 290 289 288 287 286 286 286 286 286 285 285 286 286 286 287 287 287
303 301 301 299 295 294 293 291 291 291 289 289 288 286 285 285 286 285 285 284 284 285 284 285 286 287 287
303 300 299 296 295 294 292 291 291 290 289 288 287 285 285 285 284 284 283 283 283 283 283 284 284 286 287
301 298 296 294 294 293 291 291 290 290 289 288 287 285 285 284 283 283 282 282 282 282 283 283 284 285 286
298 294 290 290 291 289 290 290 289 290 288 287 286 285 284 283 283 282 282 282 282 281 283 283 283 284 284
294 291 290 291 290 290 290 290 289 289 288 287 286 284 284 283 282 282 282 281 281 281 281 282 282 284 284
294 294 291 293 290 291 289 287 288 287 287 287 286 284 284 282 282 281 282 281 281 280 280 279 279 280 282
293 291 285 284 284 284 284 286 285 287 286 286 285 285 283 283 282 281 281 281 280 280 280 281 278 278 278
292 290 289 289 288 289 290 289 287 286 286 285 285 284 283 282 281 281 281 280 281 279 280 281 279 279 277

GFSFLT2_sfc_thetae_003.txt.gz
Theta_e
337 339 341 343 342 340 338 335 333 329 327 326 325 325 325 324 323 321 320 319 318 316 313 311 308 305 303
335 332 334 337 338 337 335 332 327 327 326 326 325 325 324 324 320 319 318 317 315 312 310 307 303 302 300
328 329 330 331 331 330 328 324 321 318 319 318 318 325 323 321 318 316 315 312 310 308 306 303 299 298 298
321 325 327 326 327 323 320 316 312 311 311 311 315 320 322 319 315 313 309 304 298 297 297 297 296 296 297
318 318 320 320 319 316 314 309 307 306 308 309 310 308 308 307 306 303 298 296 297 296 295 295 295 295 296
315 315 316 316 313 311 309 306 303 302 304 304 304 302 302 299 297 296 296 295 295 294 294 294 294 295 295
311 313 312 313 311 310 306 302 301 300 301 301 299 297 296 294 294 294 294 294 294 293 293 293 293 294 294
312 311 311 311 310 306 304 302 298 299 299 299 295 293 293 293 293 293 293 293 293 292 291 292 292 293 294
312 310 310 309 305 305 303 300 298 297 297 296 294 292 292 292 292 291 291 291 291 291 291 291 292 293 294
311 310 309 307 305 305 302 300 297 296 296 295 293 292 291 291 291 291 290 289 290 291 290 290 291 293 293
310 310 309 305 305 304 300 298 296 295 295 294 293 292 290 290 290 289 288 289 289 289 289 290 291 292 291
308 308 305 301 303 301 299 297 295 295 294 294 293 291 290 289 288 288 288 288 289 289 287 288 290 290 290
304 301 298 298 300 297 298 297 295 295 293 293 292 290 289 289 289 288 288 288 287 287 288 288 289 289 289
302 302 300 300 299 298 296 295 295 294 293 292 291 290 289 288 287 287 287 286 286 286 289 288 286 288 289
299 298 290 291 289 291 290 291 292 292 292 292 291 290 289 289 287 287 287 288 286 285 285 290 285 288 286
296 295 295 294 292 292 294 293 291 291 291 292 290 289 289 288 287 286 287 287 287 286 285 285 285 287 287

GFSFLT2_sfc_thetae_006.txt.gz
Theta_e
339 341 344 345 344 343 341 339 337 336 332 329 329 328 327 325 325 323 321 320 318 315 313 310 307 306 308
340 333 336 340 340 340 338 334 332 331 330 328 327 327 325 325 322 320 320 318 315 312 309 305 303 303 305
338 335 331 333 335 334 333 328 325 329 326 324 324 327 325 323 321 319 317 314 311 308 305 302 302 303 303
334 337 338 338 339 338 336 332 330 326 324 322 320 323 325 322 318 316 313 307 302 304 302 300 302 302 302
332 333 335 336 335 336 334 330 326 322 320 319 321 321 321 316 315 311 306 303 303 303 302 302 301 302 303
331 331 332 333 332 331 329 325 322 320 318 317 318 319 318 315 312 306 303 303 302 300 300 300 300 301 302
327 328 328 329 329 328 325 321 320 318 315 314 316 315 314 310 306 302 302 301 300 299 299 299 299 300 300
325 325 325 326 327 326 322 319 317 316 313 312 312 311 309 305 302 301 301 300 300 299 297 298 298 299 300
323 324 324 324 323 323 320 318 315 313 310 309 309 307 304 301 301 300 299 299 298 297 297 297 298 299 299
322 323 322 322 320 320 319 317 313 310 308 306 306 304 301 299 299 298 297 297 297 297 296 297 298 298 297
321 321 321 320 319 318 317 315 312 308 306 304 304 302 299 298 298 297 297 297 296 296 295 297 297 298 296
317 319 319 318 317 317 316 314 311 307 304 303 302 301 298 297 297 296 296 296 297 296 292 294 296 296 296
313 313 314 314 314 314 314 312 310 307 304 302 301 300 297 297 297 296 296 294 294 295 295 294 294 294 295
311 312 313 312 312 312 312 310 309 307 303 301 301 299 297 297 296 295 294 293 294 294 296 295 292 291 293
308 309 309 304 305 307 307 307 305 305 303 302 300 299 298 297 296 296 296 295 293 293 295 297 292 294 292
304 304 304 302 300 302 302 303 303 303 302 300 300 299 298 297 296 296 295 296 298 293 292 291 293 296 293

GFSFLT2_sfc_thetae_009.txt.gz
Theta_e
342 344 346 348 348 346 343 341 341 339 336 334 332 332 331 328 327 326 322 321 318 315 312 309 307 311 310
343 335 338 341 341 341 339 336 334 333 333 332 330 331 328 326 325 323 321 319 316 313 308 305 303 307 307
340 337 332 335 336 336 334 330 328 333 330 327 325 328 328 326 323 322 319 317 312 308 305 302 304 305 305
337 338 337 338 339 339 339 335 334 333 329 324 321 325 327 324 322 320 317 312 308 306 303 303 304 304 304
336 337 338 337 336 336 336 337 334 331 327 324 323 323 323 318 317 316 309 304 306 306 305 305 304 304 304
334 334 335 335 336 333 336 337 333 329 325 322 321 322 324 319 317 314 308 308 305 304 304 303 302 303 303
332 333 333 334 334 335 336 335 331 326 322 320 320 321 321 318 315 310 306 305 305 302 302 302 301 301 302
330 332 331 332 333 333 332 331 328 325 321 318 318 319 318 315 311 306 305 304 303 303 300 300 300 301 301
328 329 330 330 330 331 330 329 326 323 320 317 316 316 315 312 308 305 304 304 302 301 300 299 300 301 300
326 327 328 328 328 329 328 326 323 321 318 315 313 313 312 307 304 303 302 301 301 299 299 299 300 301 300
325 326 326 327 326 326 326 324 322 319 316 312 311 310 308 303 302 301 300 300 299 299 299 299 300 300 299
320 323 324 325 324 324 323 322 320 317 314 311 309 308 304 302 300 301 300 300 300 299 294 296 299 299 299
315 316 318 319 320 321 321 321 319 316 313 310 307 306 302 300 300 300 300 298 299 298 296 296 295 296 297
312 314 315 316 318 318 319 318 316 315 311 308 305 304 301 300 300 299 298 296 298 297 297 296 292 292 295
308 310 311 311 307 308 312 314 313 312 311 308 305 303 301 299 298 299 298 297 295 296 300 299 295 294 291
304 305 305 305 303 305 305 308 309 310 309 307 305 303 301 299 298 298 298 297 297 293 295 296 297 299 293

GFSFLT2_sfc_thetae_015.txt.gz
Theta_e
342 344 346 348 348 348 349 348 346 344 341 339 335 336 334 334 332 330 325 322 319 315 311 311 314 317 304
340 337 339 342 344 344 344 341 338 336 336 334 332 334 334 333 330 327 323 321 318 313 308 307 311 310 300
336 335 333 336 338 338 337 333 329 329 328 328 327 331 333 331 329 325 322 320 316 310 306 306 308 296 298
339 336 334 338 337 335 335 330 330 326 325 325 322 326 329 329 328 324 322 318 309 298 296 304 296 295 295
334 332 335 338 335 335 334 330 329 327 323 320 318 319 318 319 317 318 313 306 302 299 295 295 295 295 294
331 328 332 335 331 329 333 330 329 328 323 317 314 314 313 311 309 306 304 301 297 296 296 294 294 294 294
326 326 325 330 330 329 326 331 330 327 322 316 312 313 310 309 307 304 301 297 296 295 295 294 294 294 294
326 324 324 324 324 325 325 325 327 328 321 316 312 312 310 309 306 303 298 296 294 294 294 294 294 294 295
322 323 322 323 323 323 323 323 322 322 319 316 311 311 311 308 304 299 296 295 293 294 292 293 293 294 294
318 320 322 321 321 321 322 324 321 320 318 313 310 308 308 305 301 297 295 293 292 291 290 291 292 293 293
316 317 317 319 319 318 319 322 321 318 315 312 310 307 306 301 297 296 292 292 290 290 290 289 291 291 292
310 311 312 314 317 318 318 320 319 318 314 310 308 305 302 298 294 293 292 291 290 290 292 291 290 290 290
304 305 307 308 309 313 316 316 316 316 315 308 305 304 299 298 295 293 291 290 289 288 288 287 287 289 289
299 301 302 300 301 306 307 311 312 312 312 309 304 301 298 294 293 292 291 289 290 289 287 285 283 286 287
294 296 297 298 298 298 302 303 303 307 308 307 304 301 298 296 294 292 291 290 289 288 289 288 283 283 283
293 292 291 291 290 292 294 294 295 298 303 304 304 301 298 296 294 292 292 290 289 287 287 291 288 287 283

GFSFLT2_sfc_thetae_021.txt.gz
Theta_e
342 344 346 348 348 348 349 349 347 346 344 338 338 337 337 336 333 332 326 321 317 313 314 317 319 319 311
340 336 338 341 343 343 343 341 339 339 337 336 333 337 337 335 332 331 325 320 317 310 311 313 314 313 305
341 337 333 336 338 337 337 334 334 333 333 329 328 332 336 335 333 331 324 321 316 309 308 310 304 300 300
338 337 338 340 339 340 339 338 335 331 330 328 324 327 331 331 332 330 324 321 307 295 294 300 294 295 297
336 337 336 337 337 335 335 335 332 328 326 325 324 325 321 321 320 321 315 307 298 293 293 293 292 292 295
328 333 334 335 336 334 333 329 328 326 325 323 322 322 321 318 314 310 307 304 299 296 294 293 292 292 294
325 325 326 332 335 333 332 329 325 323 324 322 321 319 319 316 313 307 305 303 297 294 293 292 292 292 292
323 322 323 331 332 330 328 327 323 323 321 322 319 317 316 315 311 307 304 301 295 292 292 292 291 291 292
319 320 321 322 324 324 323 323 323 326 325 321 318 316 315 313 310 307 301 297 293 292 291 291 291 291 292
315 318 319 319 320 320 324 324 324 324 323 319 317 315 315 312 309 306 302 296 294 291 289 289 289 290 291
311 313 314 314 319 319 321 321 322 321 320 318 316 316 313 310 308 305 299 298 293 291 290 289 288 289 290
305 305 305 306 311 310 309 311 315 317 315 315 314 312 310 308 305 302 299 294 293 291 291 289 287 288 289
297 299 300 297 301 299 299 299 305 308 312 311 309 308 306 306 304 301 296 295 293 291 289 287 287 288 288
292 293 295 294 294 293 293 293 294 295 298 303 304 303 303 302 300 298 296 294 293 291 290 287 285 286 286
291 291 291 291 290 290 290 290 291 291 291 293 294 297 297 298 298 297 295 294 293 291 290 291 286 283 282
290 289 288 287 286 287 287 288 288 288 288 290 290 291 291 294 295 295 295 294 292 291 291 290 289 288 285

GFSFLT2_sfc_thetae_024.txt.gz
Theta_e
343 344 346 348 348 348 347 347 346 345 345 340 339 339 336 337 333 330 328 323 319 314 317 319 322 319 311
340 335 338 341 343 344 343 341 338 339 339 336 334 337 337 335 332 330 326 322 318 313 313 314 315 312 306
340 337 331 335 337 337 336 334 334 334 336 331 328 333 337 335 333 331 325 321 316 309 311 309 304 299 299
337 338 338 340 336 335 336 337 337 336 332 330 325 328 332 331 333 331 325 318 305 293 292 299 292 294 296
335 336 337 338 337 336 337 337 335 332 328 327 326 326 326 323 322 320 312 307 299 293 292 292 291 292 293
332 334 335 335 335 334 333 332 331 328 326 324 324 323 323 321 319 316 311 305 300 296 294 292 291 291 292
321 330 330 331 333 334 333 331 329 327 325 324 323 322 321 318 317 314 309 305 301 295 293 292 291 290 290
316 324 326 330 331 331 330 329 328 326 321 321 320 316 319 318 315 312 309 304 300 294 293 292 291 290 291
317 321 322 326 327 326 326 325 325 325 322 322 320 318 318 316 313 310 306 303 299 294 292 291 290 290 290
316 318 319 321 321 322 323 324 324 324 324 321 319 317 316 313 311 309 305 302 300 297 293 290 289 289 290
307 310 312 309 306 305 307 310 315 316 318 318 315 314 314 311 309 307 302 301 300 298 295 293 289 288 289
303 304 302 299 297 297 296 298 300 303 308 311 311 309 310 309 306 304 302 298 296 295 294 292 289 289 288
295 296 296 292 294 293 293 293 294 295 298 300 303 302 304 303 302 301 298 297 296 293 293 294 292 290 288
291 291 291 291 291 291 291 289 290 291 292 292 294 296 297 298 296 296 295 294 294 292 292 289 288 289 287
290 291 290 289 288 287 286 285 285 287 288 289 290 290 291 292 292 293 294 293 293 292 291 291 289 287 285
287 287 285 284 282 283 283 284 284 285 285 285 286 286 287 288 288 289 292 291 290 289 292 291 289 288 286

GFSFLT2_sfc_thetae_027.txt.gz
Theta_e
342 343 345 347 347 347 347 347 346 345 345 342 339 340 337 337 334 332 328 324 320 316 318 321 321 319 321
346 334 338 341 343 343 342 340 337 338 339 336 334 337 336 335 333 331 327 323 319 314 315 312 312 311 312
341 339 332 334 337 337 337 334 335 343 342 334 330 334 337 336 333 331 326 322 314 307 309 307 304 306 306
337 340 339 342 341 343 343 342 339 339 337 333 327 329 332 331 333 330 325 317 308 301 301 302 301 301 304
328 337 339 340 340 342 342 340 338 335 332 331 329 329 330 324 327 323 317 315 308 303 302 301 300 300 302
315 333 337 337 337 336 335 335 335 332 330 329 327 327 326 325 323 320 316 314 309 303 301 300 299 300 300
313 330 333 334 335 335 336 333 331 330 328 327 327 327 326 323 321 318 314 311 311 305 301 299 299 299 299
315 327 329 331 331 330 329 329 329 329 327 326 324 323 323 325 324 318 314 311 308 306 302 299 299 299 298
323 325 327 325 324 323 323 322 324 325 325 324 323 322 320 320 318 315 312 310 306 302 302 300 298 298 298
316 315 310 308 307 308 309 312 314 316 319 319 318 317 316 315 313 311 308 307 306 304 304 301 299 297 297
305 303 301 300 300 300 300 302 304 307 311 312 311 311 312 310 309 308 304 304 303 302 300 300 299 299 298
302 300 298 297 296 295 295 296 297 299 303 305 304 305 307 306 305 306 304 302 299 297 296 296 298 298 299
298 298 295 292 292 291 291 292 293 295 296 297 299 300 302 300 300 300 302 301 300 298 298 301 300 297 296
294 294 293 291 289 289 289 288 289 291 292 292 293 293 294 296 296 296 297 298 298 296 295 295 295 298 295
293 292 291 290 289 287 286 286 286 287 288 289 289 290 290 291 291 293 294 294 294 296 295 293 294 292 291
288 288 287 285 283 284 284 285 285 285 286 286 286 286 287 287 287 289 290 291 293 291 294 294 294 292 289

GFSFLT2_sfc_thetae_030.txt.gz
Theta_e
343 344 345 347 348 348 348 347 347 345 345 342 339 339 338 336 334 332 328 324 318 318 319 320 318 318 323
348 335 336 341 343 344 343 342 340 339 340 336 334 338 338 335 333 331 327 323 317 315 314 312 311 315 316
340 339 334 333 336 337 338 334 334 344 344 338 332 335 337 336 333 330 326 321 312 306 308 307 309 310 310
334 340 342 343 346 346 345 345 344 342 342 338 329 329 332 332 333 330 325 317 315 310 307 306 307 307 308
329 340 342 343 343 345 344 343 343 338 337 335 332 332 333 326 331 328 323 326 320 314 309 307 306 307 307
317 336 339 339 341 342 344 341 343 341 336 333 332 331 330 330 327 325 321 321 320 314 310 308 307 306 306
318 334 338 337 337 336 338 336 335 337 336 338 334 330 330 329 329 323 319 315 317 316 311 308 306 306 305
321 333 333 332 329 328 325 328 328 331 330 330 329 330 328 326 324 321 316 314 311 309 313 309 307 307 306
326 321 317 317 317 316 317 319 320 324 325 324 322 320 320 320 317 316 313 312 311 312 309 308 309 308 307
308 308 307 307 306 307 309 311 314 317 318 317 316 314 315 314 313 311 310 309 308 311 313 310 306 309 308
303 302 301 301 302 303 304 305 305 308 309 309 311 311 311 310 310 310 309 307 307 306 303 304 304 304 309
302 300 300 300 301 301 300 301 302 303 306 307 306 307 309 309 308 310 309 308 306 304 303 303 309 308 308
302 301 300 299 298 297 297 299 300 301 302 304 303 305 305 305 304 305 307 306 304 304 307 307 308 305 303
303 301 299 296 294 294 294 294 294 295 296 297 298 298 300 300 300 301 302 303 303 301 300 303 302 304 303
298 297 295 295 294 292 291 290 291 292 292 293 293 293 293 294 293 295 297 299 298 300 300 299 298 296 297
297 298 297 294 290 289 289 289 289 290 290 290 290 290 290 290 290 290 291 291 293 290 296 295 297 296 293

GFSFLT2_sfc_thetae_033.txt.gz
Theta_e
340 344 346 347 347 347 347 346 345 344 344 340 341 340 338 336 334 331 328 323 319 319 317 316 317 320 321
347 335 336 339 343 344 343 342 340 340 340 337 335 339 337 335 333 330 327 323 317 314 313 311 314 317 314
340 339 333 331 335 337 338 335 334 343 343 336 332 336 338 335 332 330 327 321 312 309 309 310 313 309 310
334 340 343 343 345 345 344 344 343 343 341 339 331 330 332 332 333 330 324 319 318 315 310 312 308 309 309
327 337 341 344 344 343 344 343 342 342 340 338 333 332 333 327 332 328 324 326 324 319 313 310 309 310 309
319 335 339 340 342 342 341 341 341 341 340 336 333 334 336 332 330 326 324 321 321 318 314 312 309 309 308
320 332 338 337 337 336 335 334 337 337 337 337 335 335 331 331 330 328 324 320 317 316 315 313 310 309 308
323 326 325 325 323 321 321 325 329 330 328 328 327 326 325 326 324 320 318 317 314 312 314 313 312 312 311
316 313 313 313 313 313 314 317 320 323 325 321 319 317 317 318 317 316 314 314 315 314 314 313 313 314 312
307 306 307 308 309 309 311 313 314 317 317 318 316 313 314 313 312 310 310 309 309 308 309 310 308 308 312
303 303 303 304 305 307 307 309 310 310 309 310 310 310 310 309 310 312 311 311 310 309 308 309 309 307 311
302 302 302 302 302 305 305 306 307 308 310 311 311 310 311 310 309 312 311 310 307 306 306 309 313 312 311
303 303 302 301 301 299 300 301 301 303 304 305 305 305 306 304 304 305 308 306 304 304 306 306 310 306 306
306 304 302 299 298 297 296 296 296 297 297 298 298 299 299 298 298 299 301 303 302 302 299 303 302 303 304
302 300 298 297 297 294 293 292 292 293 293 295 294 294 294 294 292 293 294 295 294 298 297 297 295 294 295
301 300 299 297 292 292 291 291 291 291 291 292 292 292 292 292 291 291 291 292 292 289 293 292 293 294 289

GFSFLT2_sfc_thetae_036.txt.gz
Theta_e
337 341 345 346 345 345 346 345 345 344 344 342 342 340 338 336 334 331 327 321 318 317 315 315 319 320 311
342 333 334 338 341 343 342 340 339 339 337 337 335 338 338 335 333 331 327 320 315 314 312 315 316 316 305
338 336 331 331 334 337 337 334 332 339 335 332 332 335 337 335 333 330 326 319 315 314 313 313 313 302 303
331 336 339 339 340 341 339 337 338 337 339 334 327 330 333 332 332 328 324 322 319 308 304 309 301 301 302
316 332 335 337 337 338 339 337 336 336 333 331 327 328 328 326 326 325 322 321 316 311 307 303 302 301 300
313 325 335 334 334 333 333 334 335 334 331 331 330 330 330 327 325 323 317 316 316 314 309 306 303 301 300
314 328 331 327 325 324 326 328 331 331 329 330 330 329 328 326 323 323 318 315 311 313 310 308 306 304 303
319 319 319 319 319 317 320 322 325 326 324 322 320 320 320 320 319 316 314 313 311 311 311 311 309 308 307
311 311 313 313 313 313 315 316 317 320 320 317 315 314 314 315 314 313 312 312 310 310 311 311 310 308 308
307 307 307 308 308 309 309 309 310 313 313 312 311 310 312 312 311 310 309 309 309 308 307 306 306 306 308
304 304 305 306 306 306 307 308 308 307 308 308 307 307 309 309 309 310 307 305 301 300 301 302 303 302 305
303 303 302 302 302 302 301 301 303 304 305 305 303 303 303 302 301 302 302 301 298 297 301 303 303 301 300
303 301 300 298 297 295 296 296 296 298 300 299 299 299 297 296 295 297 300 298 295 295 297 298 298 299 297
305 301 299 296 293 292 291 292 292 293 293 293 292 291 291 290 289 290 290 293 293 291 291 294 293 296 294
299 296 294 293 291 289 288 287 289 290 290 290 289 289 288 288 287 287 287 287 286 288 287 289 287 285 287
296 294 292 290 287 287 286 286 287 288 288 288 288 288 287 287 286 286 287 285 285 283 286 288 284 286 282

GFSFLT2_sfc_thetae_042.txt.gz
Theta_e
341 342 344 345 345 345 346 346 345 343 343 342 340 338 336 334 330 325 321 318 318 319 318 318 317 313 303
337 332 337 340 341 342 341 339 336 337 338 337 335 337 336 333 329 326 322 319 318 317 317 316 313 309 300
340 334 331 335 337 335 334 331 331 333 333 332 331 335 335 333 329 326 322 318 316 317 316 312 307 299 300
327 338 339 338 336 336 336 333 335 331 332 333 328 330 332 330 330 328 323 318 311 303 302 305 298 299 300
312 329 334 338 335 333 335 334 336 333 331 329 328 327 324 321 319 317 315 312 307 306 302 301 300 298 299
311 322 330 331 330 326 328 332 333 332 329 327 326 327 327 324 316 314 312 311 310 308 306 304 303 300 299
314 326 324 321 324 323 323 329 332 331 329 329 326 324 323 323 319 313 312 312 309 310 308 307 305 303 302
319 319 318 318 320 321 320 323 325 325 323 321 320 318 318 317 316 313 312 309 311 310 307 307 306 305 302
313 313 314 315 315 314 315 317 318 319 318 317 316 314 314 314 314 312 309 309 307 307 306 307 305 300 299
309 309 309 310 310 310 311 313 314 313 313 312 312 311 312 311 309 305 302 299 298 299 299 300 298 298 296
306 307 306 306 306 307 308 309 309 308 307 305 302 303 303 303 300 297 294 295 295 296 300 298 295 295 293
303 302 301 300 299 299 301 302 302 300 300 298 297 297 298 298 296 293 290 290 291 295 298 296 295 293 290
301 300 298 296 295 295 296 297 295 295 296 294 292 291 292 293 292 292 289 287 287 288 294 293 292 290 288
303 299 296 294 291 291 291 289 290 291 290 289 289 288 288 287 286 287 288 287 285 284 291 291 288 289 287
298 294 291 291 290 289 286 286 287 288 288 288 287 286 286 286 284 284 285 285 283 283 283 288 282 283 283
295 293 292 288 286 286 284 284 285 286 286 287 286 286 285 285 284 283 283 283 283 281 282 283 280 282 277

GFSFLT2_sfc_thetae_045.txt.gz
Theta_e
341 342 344 345 346 346 346 346 344 343 342 340 339 337 334 331 328 324 322 321 320 320 320 317 314 313 305
336 330 335 339 341 341 341 339 336 337 338 337 334 337 333 330 328 325 322 320 319 319 317 313 310 308 302
337 333 329 334 335 335 334 331 330 333 333 332 331 334 334 330 327 324 320 317 314 315 313 310 306 299 300
326 337 337 337 335 335 334 332 332 331 331 332 327 329 329 328 329 324 319 314 307 301 300 303 298 299 301
314 331 336 339 337 335 336 335 333 332 331 330 328 326 323 318 316 314 311 308 305 303 302 300 299 299 300
310 324 332 332 331 329 332 332 333 331 328 327 327 326 325 321 313 311 309 308 307 306 305 303 300 300 301
311 327 326 325 325 325 329 332 332 330 328 328 327 325 323 321 317 311 309 309 308 308 306 303 301 299 299
317 321 320 321 322 322 323 326 327 328 326 324 321 319 318 317 316 313 309 310 310 309 307 305 301 299 298
316 315 317 317 317 317 318 320 321 322 321 319 317 315 315 314 313 311 308 307 306 306 303 299 298 296 294
312 312 312 312 312 313 314 315 316 316 316 315 314 312 312 310 308 304 302 299 299 299 296 295 294 291 290
307 307 308 307 308 310 311 311 311 311 311 311 309 308 306 303 300 296 294 296 298 296 295 293 291 289 288
302 302 302 300 299 301 302 305 306 305 305 305 303 302 300 294 291 291 292 292 294 295 294 291 289 287 285
299 299 299 298 297 296 297 300 300 299 297 297 296 296 295 291 289 289 289 293 288 290 290 289 288 286 283
300 297 296 295 290 292 293 294 295 293 292 292 292 291 289 288 287 287 287 285 284 284 291 289 285 287 285
297 292 290 290 291 291 290 290 289 289 288 289 288 287 285 285 284 284 285 284 282 282 283 290 285 286 282
294 292 293 290 287 289 288 288 286 286 286 286 286 285 285 284 283 283 284 283 282 281 281 281 279 281 277

GFSFLT2_sfc_thetae_048.txt.gz
Theta_e
340 342 344 346 346 346 346 345 343 341 340 339 338 335 332 330 326 324 322 322 321 319 316 316 317 316 306
338 332 336 339 341 341 341 338 336 337 337 335 333 334 331 328 326 323 322 320 319 317 315 312 312 311 305
334 332 328 334 335 335 334 331 330 332 331 330 330 332 331 329 325 321 317 316 315 314 312 310 307 302 307
330 338 336 336 335 334 334 332 332 330 331 331 326 327 328 327 324 320 316 311 305 299 301 304 301 303 307
319 332 337 338 334 333 335 335 333 332 331 330 326 324 320 316 312 310 307 305 303 302 300 299 301 303 306
311 319 331 334 334 334 334 334 332 330 329 328 326 324 321 317 311 308 306 306 305 303 301 300 300 301 302
309 327 326 328 329 329 332 333 332 329 328 327 326 325 321 318 314 309 308 308 305 303 301 300 298 297 297
312 322 324 325 325 326 328 331 331 330 328 326 322 321 318 317 314 312 311 310 308 305 301 299 295 293 292
313 319 319 321 321 321 321 324 326 327 325 322 319 317 315 315 313 310 308 308 304 300 296 293 291 290 289
310 315 313 316 315 316 317 318 320 321 321 319 316 314 313 311 309 305 304 301 296 294 291 289 288 288 287
307 309 307 310 311 312 313 314 314 315 316 315 313 311 308 305 303 301 298 298 294 291 289 287 285 285 285
305 303 302 303 303 306 308 309 309 308 309 309 307 304 301 298 297 297 295 293 293 289 287 285 284 283 283
303 302 300 301 300 300 301 304 304 304 304 304 302 299 295 294 293 296 294 293 289 288 287 285 284 282 281
303 298 296 295 292 295 296 296 298 298 299 299 298 292 290 290 291 292 291 285 284 284 288 286 282 284 283
301 293 291 292 293 293 292 293 293 294 294 293 291 289 287 289 291 287 287 287 282 281 283 289 285 285 282
296 295 295 291 290 290 291 290 289 290 289 289 288 286 285 285 285 285 284 283 283 280 280 280 279 282 278